EST,Max TemperatureF,Mean TemperatureF,Min TemperatureF,Max Dew PointF,MeanDew PointF,Min DewpointF,Max Humidity, Mean Humidity, Min Humidity, Max Sea Level PressureIn, Mean Sea Level PressureIn, Min Sea Level PressureIn, Max VisibilityMiles, Mean VisibilityMiles, Min VisibilityMiles, Max Wind SpeedMPH, Mean Wind SpeedMPH, Max Gust SpeedMPH,PrecipitationIn, CloudCover, Events, WindDirDegrees
2013-12-1,35,32,30,32,29,25,92,83,76,30.13,30.08,30.04,10,8,4,10,5,,0.00,8,,70
2013-12-2,32,30,29,28,24,21,88,75,63,30.03,29.96,29.92,10,10,7,13,8,16,0.00,8,,100
2013-12-3,31,28,26,30,24,20,96,82,69,29.99,29.94,29.91,10,8,0,17,11,22,0.00,6,Snow,95
2013-12-4,47,39,31,46,34,30,99,96,94,29.93,29.77,29.43,10,7,1,23,14,29,0.00,8,Rain-Snow,106
2013-12-5,49,35,21,47,26,14,97,76,67,30.10,29.75,29.42,10,10,4,30,20,43,0.00,8,Snow,244
2013-12-6,22,20,19,15,11,8,76,66,56,30.36,30.24,30.10,10,10,7,22,16,31,0.00,8,Snow,278
2013-12-7,20,19,18,11,8,5,67,62,57,30.54,30.48,30.37,10,10,7,22,16,30,0.00,8,Snow,269
2013-12-8,22,19,17,20,13,7,93,78,62,30.53,30.38,30.04,10,6,2,17,11,23,0.00,8,Snow,168
2013-12-9,28,20,13,26,17,6,96,82,63,30.02,29.86,29.76,10,3,0,33,12,43,0.00,8,Snow,243
2013-12-10,18,15,12,14,9,5,86,77,63,30.05,29.91,29.76,10,3,0,28,16,36,0.00,8,Snow,241
2013-12-11,16,14,13,11,6,2,85,71,57,30.33,30.22,30.05,10,4,0,26,20,33,0.00,8,Snow,283
2013-12-12,20,16,12,14,10,3,84,74,63,30.31,30.16,30.04,10,3,0,25,18,33,0.00,8,Snow,263
2013-12-13,20,14,8,12,4,-2,82,67,59,30.41,30.25,30.05,10,8,1,26,16,33,0.00,5,Snow,45
2013-12-14,19,13,7,15,10,0,86,78,70,30.42,30.19,29.91,10,7,1,20,13,25,0.00,7,Snow,88
2013-12-15,23,20,16,19,15,10,93,83,73,29.99,29.80,29.71,10,3,0,24,11,31,0.00,8,Snow,337
2013-12-16,16,12,7,13,7,2,87,76,60,30.16,30.06,29.92,10,6,1,15,10,22,0.00,7,Snow,118
2013-12-17,29,22,15,24,19,12,90,83,67,29.92,29.84,29.79,10,6,1,21,10,25,0.00,8,Snow,235
2013-12-18,26,24,21,21,16,13,81,73,68,30.01,29.91,29.72,10,9,2,18,12,28,0.00,8,Snow,236
2013-12-19,33,28,22,27,22,16,86,78,72,30.09,29.93,29.71,10,10,10,18,10,21,0.00,7,,345
2013-12-20,24,21,19,22,19,16,93,89,81,30.05,29.95,29.86,10,4,1,14,8,17,0.00,8,Snow,61
2013-12-21,26,24,23,24,22,21,95,88,83,30.00,29.92,29.84,10,10,7,17,7,23,0.00,7,,76
2013-12-22,25,20,15,22,17,12,91,85,78,30.07,29.91,29.81,10,5,0,24,14,30,0.00,8,Snow,59
2013-12-23,16,14,11,12,10,7,90,81,71,30.35,30.23,30.07,10,5,2,14,7,21,0.00,8,Snow,29
2013-12-24,11,3,-5,7,0,-10,85,80,70,30.48,30.44,30.34,10,8,2,8,5,,0.00,4,Snow,112
2013-12-25,24,20,16,21,17,13,91,82,73,30.24,30.09,30.02,10,4,0,17,12,25,0.00,8,Snow,208
2013-12-26,23,22,21,22,17,13,96,80,68,30.20,30.10,29.99,10,7,1,15,6,22,0.00,8,Snow,260
2013-12-27,37,29,21,32,21,13,85,78,71,30.23,30.10,29.88,10,10,7,23,9,30,0.00,8,,227
2013-12-28,39,33,27,32,30,27,100,85,74,29.99,29.90,29.74,10,9,3,17,9,26,0.00,4,,223
2013-12-29,38,25,11,34,17,0,99,81,58,30.06,29.87,29.70,10,7,2,23,11,30,0.00,7,Snow,328
2013-12-30,14,13,12,10,6,0,86,73,58,30.21,30.13,30.05,10,5,1,17,11,22,0.00,8,Snow,255
2013-12-31,13,11,9,9,4,-2,85,72,58,30.32,30.11,29.99,10,4,0,25,15,34,0.00,8,Snow,280